Location: Unspecified
(41.1637°N, 24.2901°E)
Time: 16:50:32
(UTC+02:00)

X-37B - Pass Details

Date: 09 March 2021
Orbit: 380 x 394 km, 45.0° (Epoch: 07 April)

Event Time Altitude Azimuth Distance (km) Brightness Sun altitude
Rises 19:01:17 0° 212° (SSW) 2,261 4.7 -19.2°
Reaches altitude 10° 19:03:39 10° 195° (SSW) 1,413 3.4 -19.7°
Enters shadow 19:03:56 12° 192° (SSW) 1,324 3.3 -19.7°
